星链-34751 (STARLINK-34751)

导读 | 豆包AI

STARLINK-34751是美国于2025年8月27日发射的星链卫星,归属于SpaceX公司的星链星座项目。星链项目旨在构建全球卫星互联网通信系统,为全球偏远地区、海洋等地面网络覆盖不足区域提供宽带互联网接入服务。该卫星入轨后,将进一步扩充星链星座的卫星规模,提升星座整体通信服务的覆盖能力与运行稳定性。

基本信息
目录编号:
65338
目录名称:
STARLINK-34751
国际标识:
2025-189R
轨道中心:
EARTH
卫星名称:
星链-34751
卫星全名:
星链-34751 (STARLINK-34751)
卫星状态:
在轨 (已飞行199 天)
发射日期:
2025-08-27 UTC
国别 :
美国 (US)
星等 :
--
轨道信息
数据来源 国际轨道数据
星历时间: 2026-03-14T01:06:21+0800
19小时前
查看轨道信息
半长轴: 6853.307km
偏心率: 0.0001639
轨道倾角: 53.159°
近地点辐角 234.298°
升交点赤经 187.991°
平近点角 125.787°
近地点: 474.046km
远地点: 476.294km
周期: 94.104分钟
每日圈数: 15.302151
详细信息
固有亮度:
5
最大亮度:
2.5
卫星平台:
Starlink V1.0
覆盖范围:
全球
运营商:
太空探索技术公司
运营商所在国:
美国
制造商(研发单位):
太空探索技术公司
制造商所在国:
美国
使用方式:
暂无
卫星简介
Starlink 计划是 SpaceX 推出的全球卫星互联网项目,通过发射低轨道卫星,为全球尤其是偏远地区提供高速、低延迟的互联网服务。自 2019 年起,Starlink 已部署数千颗卫星,旨在缩小全球数字鸿沟,推动互联网普及。该项目还为军事、航空等行业提供通信支持,带来广泛经济效益。
2D轨道图
3D轨道图
轨道高度分析图
轨道倾角分析图
轨道综合分析图
查看轨道综合分析图